Regional Weather Roundup
Issued by NWS

Home | Current Version | Previous Version | Graphics & Text | Print | Product List | Glossary On
Versions: 1 2 3 4 5 6 7 8 9 10 11 12 13 14 15 16 17 18 19 20 21 22 23 24 25 26 27 28 29 30 31 32 33 34 35 36 37 38 39 40 41 42 43 44 45 46 47 48 49 50
000
ASUS43 KOAX 270410
RWRNE

WEATHER ROUNDUP FOR NEBRASKA
NATIONAL WEATHER SERVICE OMAHA NE
1000 PM CST MON JAN 26 2015

NOTES: SATELLITE DATA IS BEING USED TO AUGMENT CLOUD COVER ABOVE
       12000 FEET.
       "FAIR" INDICATES FEW OR NO CLOUDS BELOW 12,000 FEET WITH NO
       SIGNIFICANT WEATHER AND/OR OBSTRUCTIONS TO VISIBILITY.

  * THESE STATIONS DO NOT REPORT WEATHER SUCH AS RAIN...SNOW OR FOG.

NEZ001>004-019>022-054>056-270500-
NEBRASKA PANHANDLE

CITY           SKY/WX    TMP DP  RH WIND       PRES   REMARKS
SCOTTSBLUFF    CLEAR     40  30  67 NW7       30.12S
ALLIANCE       CLEAR     33  29  85 W9        30.08S WCI  25
CHADRON        CLEAR     37  30  75 W10       30.04F WCI  30
KIMBALL        CLEAR     41  27  58 W9        30.15S
SIDNEY         CLEAR     43  27  53 NW13      30.14F
$$

NEZ057>060-069>072-079>082-270500-
SOUTHWEST NEBRASKA

CITY           SKY/WX    TMP DP  RH WIND       PRES   REMARKS
NORTH PLATTE   CLEAR     31  26  82 CALM      30.07F
IMPERIAL       CLEAR     43  29  57 W12       30.10F
LEXINGTON      CLEAR     32  27  80 NW6       30.06S WCI  26
MCCOOK         CLEAR     43  29  57 W9        30.09S
OGALLALA       CLEAR     34  30  84 W7        30.10S WCI  28
$$

NEZ005>010-023>029-035>040-094-270500-
NORTH CENTRAL NEBRASKA

CITY           SKY/WX    TMP DP  RH WIND       PRES   REMARKS
VALENTINE      CLEAR     35  29  78 SW3       30.02S
AINSWORTH      CLEAR     33  29  84 W3        30.03S
BROKEN BOW     CLEAR     32  26  78 NW3       30.05R
O`NEILL        CLEAR     38  31  77 CALM      30.04S
ORD            CLEAR     33  28  81 CALM      30.04R
THEDFORD       CLEAR     39  32  75 CALM      30.05S
$$

NEZ041-046>049-061>064-073>077-083>087-270500-
SOUTH CENTRAL NEBRASKA

CITY           SKY/WX    TMP DP  RH WIND       PRES   REMARKS
GRAND ISLAND   CLEAR     35  29  78 W7        30.05S WCI  29
AURORA         CLEAR     34  28  78 W5        30.05S WCI  30
HASTINGS       PTCLDY    36  27  69 CALM      30.05R
HEBRON         PTCLDY    35  27  72 CALM      30.05S
HOLDREGE       CLEAR     37  26  64 CALM      30.07S
KEARNEY *      CLEAR     37  27  65 SW5       30.07R WCI  34
YORK           CLEAR     36  27  69 N5        30.04F WCI  32
$$

NEZ011>018-030>034-042>045-270500-
NORTHEAST NEBRASKA

CITY           SKY/WX    TMP DP  RH WIND       PRES   REMARKS
NORFOLK        PTCLDY    34  29  82 W6        30.03R WCI  29
ALBION         PTCLDY    33  27  76 NW5       30.04S WCI  29
BLAIR          CLEAR     43  34  70 NW10      30.01S
COLUMBUS *     CLEAR     28  21  74 NW5       30.05S WCI  23
FREMONT        CLEAR     36  31  81 W5        30.04R WCI  32
TEKAMAH        CLEAR     36  31  82 NW12      30.03R WCI  28
WAYNE          PTCLDY    32  29  90 S3        30.04R
$$

NEZ050>053-065>068-078-088>093-270500-
SOUTHEAST NEBRASKA

CITY           SKY/WX    TMP DP  RH WIND       PRES   REMARKS
LINCOLN        CLEAR     30  24  78 N7        30.05R WCI  23
OMAHA EPPLEY   CLEAR     38  32  79 N9        30.02R WCI  31
BEATRICE       CLEAR     31  24  73 NW3       30.04R
FALLS CITY     CLEAR     36  27  69 N5        30.02R WCI  32
NEBRASKA CITY  PTCLDY    43  29  57 NW9       30.02S
PLATTSMOUTH    PTCLDY    39  30  69 NW8       30.02R WCI  34
$$

NEZ044-045-051>053-067-270500-
OMAHA AREA

CITY           SKY/WX    TMP DP  RH WIND       PRES   REMARKS
OMAHA EPPLEY   CLEAR     38  32  79 N9        30.02R WCI  31
BLAIR          CLEAR     43  34  70 NW10      30.01S
FREMONT        CLEAR     36  31  81 W5        30.04R WCI  32
MILLARD        CLEAR     41  33  74 CALM      30.03R
OFFUTT AFB     PTCLDY    40  33  74 NW7       30.02R
PLATTSMOUTH    PTCLDY    39  30  69 NW8       30.02R WCI  34
WAHOO          FAIR      39  30  71 NW8       30.02F WCI  33
$$



USA.gov is the U.S. government's official web portal to all federal, state and local government web resources and services.